GW0137 Weather Reports


time (UTC)temp
C
wind
direction
speed
KPH
gust
KPH
rain 1hr
cm
rain 24hr
cm
rain mn
cm
humidity
%
barometer
mb
20260906164522 32 280 1.6 8.0 0.00 1.35 0.00 74 1003.7
20260906163023 31 37 0.0 3.2 0.00 1.35 0.00 72 1004.1
20260906161513 31 38 0.0 6.4 0.00 1.35 0.00 72 1004.1
20260906160011 31 359 1.6 4.8 0.00 1.35 0.00 75 1004.1
20260906154509 30 303 0.0 4.8 0.00 1.42 0.00 79 1004.3
20260906153008 31 73 3.2 6.4 0.00 1.42 0.00 78 1004.2
20260906151504 30 46 0.0 4.8 0.00 1.42 0.00 79 1004.3
20260906150003 30 46 0.0 6.4 0.00 1.42 0.00 82 1004.4
20260906144610 29 46 0.0 6.4 0.00 1.42 0.00 82 1004.5
20260906143101 28 83 0.0 1.6 0.00 1.42 0.00 87 1004.5
20260906141555 27 63 0.0 4.8 0.00 1.42 0.00 89 1004.5
20260906140052 26 61 0.0 3.2 0.00 1.42 0.00 92 1004.5
20260906134548 25 359 0.0 1.6 0.00 1.42 0.00 94 1004.5
20260906133050 25 63 0.0 1.6 0.00 1.42 0.00 95 1004.5
20260906131540 24 63 0.0 0.0 0.00 1.42 0.00 95 1004.6
20260906130040 23 63 0.0 0.0 0.00 1.42 0.00 95 1004.5
20260906124536 23 63 0.0 0.0 0.00 1.42 0.00 95 1004.5
20260906123042 23 65 0.0 0.0 0.00 1.42 0.00 95 1004.5
20260906121543 23 62 0.0 0.0 0.00 1.42 0.00 94 1004.3
20260906120033 22 62 0.0 0.0 0.00 1.42 0.00 95 1004.3
20260906114536 22 62 0.0 0.0 0.00 1.42 0.00 94 1004.1
20260906113030 22 62 0.0 0.0 0.00 1.42 0.00 94 1004.1
20260906111530 22 62 0.0 0.0 0.00 1.42 0.00 94 1004.1
20260906110029 22 62 0.0 0.0 0.00 1.42 0.00 94 1004.0
20260906104527 22 62 0.0 0.0 0.00 1.42 0.00 94 1003.8
20260906103025 22 64 0.0 0.0 0.00 1.42 0.00 94 1003.6
20260906101525 22 62 0.0 0.0 0.00 1.42 0.00 94 1003.4
20260906100024 22 62 0.0 0.0 0.00 1.42 0.00 94 1003.4
20260906094524 22 62 0.0 0.0 0.00 1.42 0.00 94 1003.3
20260906093042 22 62 0.0 0.0 0.00 1.42 0.00 94 1003.1
20260906091524 22 62 0.0 0.0 0.00 1.42 0.00 94 1003.1
20260906090022 22 62 0.0 0.0 0.00 1.42 0.00 94 1002.9
20260906084520 22 67 0.0 0.0 0.00 1.42 0.00 94 1002.8
20260906083022 22 64 0.0 0.0 0.00 1.42 0.00 94 1002.7
20260906081539 23 63 0.0 0.0 0.00 1.42 0.00 94 1002.8
20260906080018 23 62 0.0 0.0 0.00 1.42 0.00 94 1002.9
20260906074517 23 62 0.0 0.0 0.00 1.42 0.00 94 1003.0
20260906073034 23 62 0.0 0.0 0.00 1.42 0.00 94 1002.8
20260906071515 23 359 0.0 0.0 0.00 1.42 0.00 94 1003.0
20260906070016 23 359 0.0 0.0 0.00 1.42 0.00 94 1003.2
20260906064516 23 359 0.0 0.0 0.00 1.42 0.00 94 1002.9
20260906063013 23 359 0.0 0.0 0.00 1.42 0.00 94 1003.0
20260906061512 23 359 0.0 0.0 0.00 1.42 0.00 94 1003.1
20260906060009 23 359 0.0 0.0 0.00 1.42 0.00 94 1003.1
20260906054512 23 359 0.0 0.0 0.00 1.42 0.00 94 1003.3
20260906053007 23 359 0.0 0.0 0.00 1.42 0.00 93 1003.2
20260906051504 23 359 0.0 0.0 0.00 1.42 0.00 93 1003.6
20260906050002 23 359 0.0 0.0 0.00 1.42 1.42 93 1003.6
20260906044501 23 359 0.0 0.0 0.00 1.42 1.42 93 1003.6
20260906043001 23 359 0.0 0.0 0.00 1.42 1.42 93 1003.5
20260906041600 23 359 0.0 0.0 0.00 1.42 1.42 93 1003.9
20260906041503 23 359 0.0 0.0 0.00 1.42 1.42 93 1003.9
20260906040115 23 359 0.0 0.0 0.00 1.42 1.42 93 1003.9
20260906034600 23 359 0.0 0.0 0.00 1.42 1.42 93 1004.0
20260906033100 23 359 0.0 0.0 0.00 1.42 1.42 93 1004.3
20260906031608 23 359 0.0 0.0 0.00 1.42 1.42 93 1004.3
20260906031500 23 359 0.0 0.0 0.00 1.42 1.42 93 1004.3
20260906030109 23 359 0.0 0.0 0.00 1.42 1.42 93 1004.3
20260906024557 24 359 0.0 0.0 0.00 1.42 1.42 93 1004.4
20260906023122 24 359 0.0 0.0 0.00 1.42 1.42 92 1004.1
20260906021558 24 359 0.0 0.0 0.00 1.42 1.42 92 1003.9
20260906020057 24 359 0.0 0.0 0.00 1.42 1.42 92 1003.5
20260906014621 25 359 0.0 0.0 0.00 1.42 1.42 92 1003.2
20260906013058 25 359 0.0 0.0 0.00 1.42 1.42 92 1002.7
20260906011558 25 359 0.0 0.0 0.00 1.42 1.42 92 1002.8
20260906010056 25 359 0.0 0.0 0.00 1.42 1.42 92 1002.7
20260906004608 26 359 0.0 0.0 0.00 1.42 1.42 91 1002.6
20260906003056 26 359 0.0 0.0 0.00 1.42 1.42 90 1002.5
20260906001554 26 359 0.0 0.0 0.00 1.42 1.42 90 1002.6
20260906000106 27 359 0.0 0.0 0.00 1.42 1.42 89 1002.7
20260905234556 27 359 0.0 0.0 0.00 1.42 1.42 88 1002.6
20260905233054 27 62 0.0 1.6 0.00 1.42 1.42 87 1002.5
20260905231549 28 62 0.0 1.6 0.00 1.42 1.42 86 1002.5
20260905230051 28 73 0.0 4.8 0.00 1.42 1.42 81 1002.7
20260905224601 29 359 0.0 0.0 0.00 1.42 1.42 81 1002.6
20260905223047 29 70 0.0 3.2 0.00 1.42 1.42 80 1002.7
20260905221546 29 70 0.0 1.6 0.00 1.42 1.42 82 1002.9
20260905220046 29 70 0.0 0.0 0.00 1.42 1.42 80 1002.8
20260905214547 28 359 0.0 3.2 0.00 1.42 1.42 83 1003.1
20260905213045 28 359 0.0 0.0 0.00 1.42 1.42 85 1003.2
20260905211545 27 70 0.0 0.0 0.00 1.42 1.42 85 1002.9
20260905210045 27 70 0.0 0.0 0.00 1.42 1.42 87 1002.7
20260905204542 27 70 0.0 0.0 0.00 1.42 1.42 88 1003.0
20260905203041 27 70 0.0 0.0 0.00 1.42 1.42 90 1003.6
20260905201540 27 70 0.0 0.0 0.00 1.42 1.42 90 1003.5
20260905200049 27 70 0.0 3.2 0.00 1.42 1.42 90 1003.5
20260905194536 27 71 0.0 3.2 0.00 1.42 1.42 90 1003.9
20260905193038 27 125 0.0 4.8 0.00 1.42 1.42 91 1004.5
20260905191537 26 70 0.0 6.4 0.38 1.42 1.42 91 1004.9
20260905190046 26 70 0.0 0.0 1.35 1.42 1.42 90 1004.9
20260905184545 25 70 1.6 6.4 1.35 1.42 1.42 90 1004.7
20260905183032 25 70 1.6 12.9 1.35 1.42 1.42 89 1005.1
20260905181532 27 315 0.0 8.0 0.86 0.97 0.97 83 1005.3
20260905180031 31 305 1.6 9.7 0.00 0.10 0.10 70 1004.9
20260905174530 31 139 1.6 11.3 0.00 0.10 0.10 73 1005.0
20260905173030 31 359 0.0 3.2 0.00 0.10 0.10 75 1005.2
20260905171534 31 359 0.0 3.2 0.00 0.10 0.10 72 1005.5
20260905170028 31 70 0.0 4.8 0.00 0.10 0.10 69 1005.6